Location: Sandbach
(53.1410°N, 2.3660°W)
Time: 19:16:39
(UTC+01:00)

ISS - Visible Passes

Search period start: 19 April 2025 00:00
Search period end: 29 April 2025 00:00
Orbit: 414 x 421 km, 51.6° (Epoch: 19 April)

Date Brightness Start Highest point End Pass type
(mag) Time Alt. Az. Time Alt. Az. Time Alt. Az.
22 Apr -1.5 05:05:14 10° S 05:07:29 17° SE 05:09:46 10° ESE visible
23 Apr -1.2 04:18:08 10° SSE 04:19:31 12° SE 04:20:53 10° ESE visible
24 Apr -2.5 05:04:31 10° SW 05:07:29 30° SSE 05:10:28 10° E visible
25 Apr -2.1 04:17:39 16° S 04:19:22 23° SSE 04:22:04 10° E visible
26 Apr -1.8 03:31:04 16° SSE 03:31:15 17° SE 03:33:28 10° ESE visible
26 Apr -3.3 05:04:14 10° WSW 05:07:29 48° SSE 05:10:43 10° E visible
27 Apr -3.0 04:17:18 19° SW 04:19:14 38° SSE 04:22:22 10° E visible
28 Apr -2.7 03:30:36 28° SSE 03:30:58 29° SSE 03:33:56 10° E visible
